This is the latest recevied weather packets stored in our database for station/object 9M4GEK-3. If no packets are shown the sender has not sent any weather packets the latest 10 day(s).
| Time | Temp. | Humidity | Pressure | Rain* | Wind** | Luminosity | Snow |
|---|---|---|---|---|---|---|---|
| 1788515264 | 38.89° C | 35% | 1008.1 hPa | - | - | - | - |
| 1788514364 | 39.44° C | 34% | 1008.1 hPa | - | - | - | - |
| 1788513465 | 40° C | 33% | 1008 hPa | - | - | - | - |
| 1788512565 | 40° C | 31% | 1008 hPa | - | - | - | - |
| 1788511665 | 40° C | 32% | 1008.1 hPa | - | - | - | - |
| 1788510765 | 41.11° C | 30% | 1007.9 hPa | - | - | - | - |
| 1788509865 | 41.67° C | 29% | 1008.1 hPa | - | - | - | - |
| 1788508965 | 42.22° C | 28% | 1008.2 hPa | - | - | - | - |
| 1788508136 | 47.22° C | 26% | 1009.8 hPa | - | - | - | - |
| 1788508065 | 42.78° C | 27% | 1008.3 hPa | - | - | - | - |
| 1788507166 | 42.78° C | 28% | 1008.5 hPa | - | - | - | - |
| 1788506266 | 44.44° C | 26% | 1008.5 hPa | - | - | - | - |
| 1788505366 | 45° C | 26% | 1008.8 hPa | - | - | - | - |
| 1788504466 | 45.56° C | 26% | 1008.9 hPa | - | - | - | - |
| 1788503566 | 43.33° C | 28% | 1009 hPa | - | - | - | - |
| 1788502667 | 44.44° C | 27% | 1009.3 hPa | - | - | - | - |
| 1788501766 | 45° C | 27% | 1009.6 hPa | - | - | - | - |
| 1788501247 | 44.44° C | 28% | 1010.2 hPa | - | - | - | - |
| 1788500866 | 47.22° C | 26% | 1009.8 hPa | - | - | - | - |
| 1788499966 | 44.44° C | 28% | 1010.2 hPa | - | - | - | - |
| 1788499066 | 46.67° C | 28% | 1010.4 hPa | - | - | - | - |
| 1788498164 | 43.33° C | 30% | 1010.7 hPa | - | - | - | - |
| 1788497576 | 27.78° C | 71% | 1009.7 hPa | - | - | - | - |
| 1788497265 | 43.33° C | 32% | 1011 hPa | - | - | - | - |
| 1788496364 | 45° C | 30% | 1011.3 hPa | - | - | - | - |
* Rain since midnight (hover to see other rain measurements)
** Current wind speed in m/s (hover to see current wind gust speed)